{"data":{"norad_id":69027,"epoch":"2026-09-19T00:56:08.648736Z","epoch_age_seconds":145626,"freshness":"FRESH","line1":"1 69027U 26101C   26262.03898899  .00015833  00000+0  49151-3 0  9998","line2":"2 69027  97.2871 115.5204 0001160  84.8250 275.3125 15.33458929 20953","mean_motion":15.33458929,"eccentricity":0.000116,"inclination_deg":97.2871,"raan_deg":115.5204,"arg_perigee_deg":84.825,"mean_anomaly_deg":275.3125,"bstar":0.00049151,"rev_number":2095,"period_min":93.905351670491,"perigee_km":464.70786979482,"apogee_km":466.29559398062,"semimajor_km":6843.6387318877,"source":"CELESTRAK","updated_at":"2026-09-20T09:00:44.058233Z"}}